Grinnell, IA

2:40 PM CDT on April 26, 2017 (GMT -0500)
Grinnell Regional

Weather History for KGGI - November, 2012

Change the Weather History Date:

Friday, November 9, 2012

  Actual Average (KTNU) Record (KTNU)
Temperature  
Mean Temperature 48 °F -  
Max Temperature 59 °F 50 °F 77 °F (1999)
Min Temperature 37 °F 33 °F 13 °F (1991)
Degree Days  
Heating Degree Days 17    
Moisture  
Dew Point 42 °F    
Average Humidity 77    
Maximum Humidity 93    
Minimum Humidity 58    
Precipitation  
Precipitation 0.00 in - - ()
Sea Level Pressure  
Sea Level Pressure 29.90 in    
Wind  
Wind Speed 8 mph (East)    
Max Wind Speed 14 mph    
Max Gust Speed 17 mph    
Visibility 10 miles    
Events      
Averages and records for this station are not official NWS values.
T = Trace of Precipitation, MM = Missing Value Source: NWS Daily Summary

Daily Weather History Graph

Daily Weather History Graph

Search for Another Location

Airport or City:

Trip Planner

Search our weather history database for the weather conditions in past years. The results will help you decide how hot, cold, wet, or windy it might be!

Date:

Astronomy

Nov. 09, 2012 Rise Set
Actual Time 6:53 AM CST 4:55 PM CST
Civil Twilight 6:23 AM CST 5:25 PM CST
Nautical Twilight 5:50 AM CST 5:58 PM CST
Astronomical Twilight 5:17 AM CST 6:31 PM CST
Moon 1:49 AM CST (11/9) 2:12 PM CST (11/9)
Length of Visible Light 11h 01m
Length of Day
10h 02m
Waning Crescent, 23% of the Moon is Illuminated
Nov 9
Waning Crescent
Nov 13
New
Nov 20
First Quarter
Nov 28
Full
Dec 6
Last Quarter

Hourly Weather History & Observations

Time (CST) Temp. Windchill Dew Point Humidity Pressure Visibility Wind Dir Wind Speed Gust Speed Precip Events Conditions
12:15 AM 40.6 °F 36.0 °F 36.7 °F 86% 29.97 in 10.0 mi East 6.9 mph - N/A   Clear
12:35 AM 40.1 °F 35.3 °F 36.5 °F 87% 29.97 in 10.0 mi East 6.9 mph - N/A   Clear
12:55 AM 38.3 °F 33.2 °F 35.8 °F 91% 29.96 in 10.0 mi East 6.9 mph - N/A   Clear
1:15 AM 39.4 °F 35.2 °F 36.5 °F 89% 29.96 in 10.0 mi East 5.8 mph - N/A   Clear
1:35 AM 39.2 °F 35.0 °F 36.0 °F 88% 29.96 in 10.0 mi East 5.8 mph - N/A   Clear
1:55 AM 39.4 °F 34.5 °F 36.5 °F 89% 29.95 in 10.0 mi East 6.9 mph - N/A   Scattered Clouds
2:15 AM 39.2 °F 34.2 °F 36.5 °F 90% 29.95 in 10.0 mi East 6.9 mph - N/A   Scattered Clouds
2:35 AM 39.4 °F 35.2 °F 36.5 °F 89% 29.95 in 10.0 mi East 5.8 mph - N/A   Overcast
2:55 AM 39.2 °F 34.2 °F 36.5 °F 90% 29.95 in 10.0 mi East 6.9 mph - N/A   Mostly Cloudy
3:15 AM 38.8 °F 33.8 °F 36.1 °F 90% 29.94 in 7.0 mi East 6.9 mph - N/A   Scattered Clouds
3:35 AM 38.7 °F 33.6 °F 36.1 °F 91% 29.94 in 7.0 mi East 6.9 mph - N/A   Clear
3:55 AM 37.2 °F 32.6 °F 34.7 °F 91% 29.94 in 7.0 mi East 5.8 mph - N/A   Clear
4:15 AM 37.4 °F 32.1 °F 35.6 °F 93% 29.94 in 7.0 mi East 6.9 mph - N/A   Clear
4:35 AM 37.6 °F 33.1 °F 35.6 °F 93% 29.94 in 7.0 mi East 5.8 mph - N/A   Clear
4:55 AM 37.9 °F 33.5 °F 36.0 °F 93% 29.94 in 7.0 mi East 5.8 mph - N/A   Clear
5:15 AM 37.9 °F 34.4 °F 35.8 °F 92% 29.94 in 7.0 mi East 4.6 mph - N/A   Clear
5:35 AM 37.0 °F 32.4 °F 35.2 °F 93% 29.94 in 7.0 mi East 5.8 mph - N/A   Clear
5:55 AM 37.9 °F 32.7 °F 36.0 °F 93% 29.94 in 7.0 mi East 6.9 mph - N/A   Scattered Clouds
6:15 AM 37.2 °F 32.6 °F 35.4 °F 93% 29.94 in 7.0 mi East 5.8 mph - N/A   Scattered Clouds
6:35 AM 38.1 °F 32.9 °F 36.1 °F 93% 29.94 in 7.0 mi East 6.9 mph - N/A   Mostly Cloudy
6:55 AM 38.7 °F 34.3 °F 36.7 °F 93% 29.94 in 7.0 mi East 5.8 mph - N/A   Overcast
7:15 AM 40.3 °F 35.5 °F 37.6 °F 90% 29.94 in 10.0 mi East 6.9 mph - N/A   Overcast
7:35 AM 40.5 °F 35.8 °F 37.4 °F 89% 29.94 in 10.0 mi East 6.9 mph - N/A   Scattered Clouds
7:55 AM 41.0 °F 36.4 °F 38.1 °F 89% 29.95 in 10.0 mi East 6.9 mph - N/A   Clear
8:15 AM 42.6 °F 37.2 °F 38.8 °F 86% 29.95 in 10.0 mi East 9.2 mph - N/A   Clear
8:35 AM 44.6 °F 39.7 °F 39.6 °F 82% 29.94 in 10.0 mi East 9.2 mph - N/A   Clear
8:55 AM 45.9 °F 41.7 °F 40.5 °F 81% 29.94 in 10.0 mi East 8.1 mph - N/A   Clear
9:15 AM 46.9 °F - 41.4 °F 81% 29.95 in 10.0 mi ESE 6.9 mph - N/A   Clear
9:35 AM 49.5 °F - 42.3 °F 76% 29.94 in 10.0 mi ESE 5.8 mph - N/A   Clear
9:55 AM 51.8 °F - 42.4 °F 70% 29.94 in 10.0 mi ESE 6.9 mph - N/A   Clear
10:15 AM 53.4 °F - 42.8 °F 67% 29.94 in 10.0 mi ESE 6.9 mph - N/A   Clear
10:35 AM 54.7 °F - 42.8 °F 64% 29.94 in 10.0 mi ESE 6.9 mph - N/A   Clear
10:55 AM 55.2 °F - 43.2 °F 64% 29.94 in 10.0 mi SE 6.9 mph - N/A   Clear
11:15 AM 56.8 °F - 43.5 °F 61% 29.92 in 10.0 mi ESE 8.1 mph - N/A   Clear
11:35 AM 57.2 °F - 43.5 °F 60% 29.91 in 10.0 mi SE 4.6 mph - N/A   Clear
11:55 AM 57.7 °F - 44.1 °F 60% 29.90 in 10.0 mi SE 5.8 mph - N/A   Clear
12:15 PM 58.1 °F - 43.9 °F 59% 29.90 in 10.0 mi SSE 5.8 mph - N/A   Clear
12:35 PM 58.3 °F - 44.1 °F 59% 29.89 in 10.0 mi East 6.9 mph - N/A   Clear
12:55 PM 59.2 °F - 44.4 °F 58% 29.88 in 10.0 mi East 6.9 mph - N/A   Clear
1:15 PM 59.5 °F - 44.8 °F 58% 29.87 in 10.0 mi East 9.2 mph - N/A   Clear
1:35 PM 59.2 °F - 44.8 °F 59% 29.86 in 10.0 mi East 11.5 mph - N/A   Clear
1:55 PM 59.0 °F - 45.1 °F 60% 29.85 in 10.0 mi East 11.5 mph - N/A   Clear
2:15 PM 58.8 °F - 45.3 °F 61% 29.85 in 10.0 mi East 11.5 mph - N/A   Clear
2:35 PM 59.0 °F - 45.5 °F 61% 29.85 in 10.0 mi East 10.4 mph 17.3 mph N/A   Clear
2:55 PM 58.8 °F - 45.7 °F 62% 29.85 in 10.0 mi East 12.7 mph - N/A   Clear
3:15 PM 59.0 °F - 46.0 °F 62% 29.84 in 10.0 mi East 11.5 mph - N/A   Clear
3:35 PM 59.0 °F - 46.2 °F 63% 29.84 in 10.0 mi East 12.7 mph 16.1 mph N/A   Clear
3:55 PM 58.6 °F - 46.6 °F 64% 29.84 in 10.0 mi East 10.4 mph - N/A   Clear
4:15 PM 58.3 °F - 46.6 °F 65% 29.85 in 10.0 mi East 9.2 mph - N/A   Clear
4:35 PM 57.9 °F - 46.4 °F 65% 29.85 in 10.0 mi East 9.2 mph - N/A   Clear
4:55 PM 56.8 °F - 46.4 °F 68% 29.85 in 10.0 mi East 6.9 mph - N/A   Clear
5:15 PM 54.9 °F - 46.4 °F 73% 29.85 in 10.0 mi East 10.4 mph - N/A   Clear
5:35 PM 54.5 °F - 45.9 °F 73% 29.85 in 10.0 mi East 10.4 mph - N/A   Clear
5:55 PM 54.1 °F - 45.5 °F 73% 29.85 in 10.0 mi East 10.4 mph - N/A   Clear
6:15 PM 53.6 °F - 45.5 °F 74% 29.85 in 10.0 mi East 11.5 mph - N/A   Scattered Clouds
6:35 PM 53.6 °F - 45.7 °F 75% 29.85 in 10.0 mi East 11.5 mph - N/A   Scattered Clouds
6:55 PM 53.8 °F - 45.9 °F 75% 29.85 in 10.0 mi East 11.5 mph - N/A   Mostly Cloudy
7:15 PM 54.1 °F - 46.2 °F 75% 29.84 in 10.0 mi East 12.7 mph - N/A   Mostly Cloudy
7:35 PM 54.0 °F - 46.4 °F 76% 29.85 in 10.0 mi East 12.7 mph - N/A   Mostly Cloudy
7:55 PM 54.1 °F - 46.4 °F 75% 29.85 in 10.0 mi East 12.7 mph - N/A   Overcast
8:15 PM 54.0 °F - 46.6 °F 76% 29.84 in 10.0 mi East 12.7 mph 17.3 mph N/A   Overcast
8:35 PM 54.1 °F - 46.6 °F 76% 29.85 in 10.0 mi East 11.5 mph - N/A   Overcast
8:55 PM 54.5 °F - 46.6 °F 75% 29.85 in 10.0 mi East 11.5 mph - N/A   Overcast
9:15 PM 54.7 °F - 46.8 °F 75% 29.85 in 10.0 mi East 13.8 mph - N/A   Overcast
9:35 PM 54.7 °F - 46.9 °F 75% 29.84 in 10.0 mi East 13.8 mph - N/A   Overcast
9:55 PM 54.9 °F - 47.3 °F 76% 29.84 in 10.0 mi East 8.1 mph - N/A   Overcast
10:15 PM 55.0 °F - 47.5 °F 76% 29.84 in 10.0 mi East 9.2 mph - N/A   Overcast
10:35 PM 55.6 °F - 47.7 °F 75% 29.84 in 10.0 mi East 12.7 mph 17.3 mph N/A   Overcast
10:55 PM 55.6 °F - 47.8 °F 75% 29.84 in 10.0 mi East 11.5 mph - N/A   Overcast
11:15 PM 55.8 °F - 48.2 °F 76% 29.84 in 10.0 mi East 13.8 mph - N/A   Overcast
11:35 PM 55.4 °F - 48.2 °F 77% 29.84 in 10.0 mi East 8.1 mph - N/A   Overcast
11:55 PM 55.4 °F - 48.4 °F 77% 29.83 in 10.0 mi East 10.4 mph - N/A   Overcast